This demonstration page uses our WeatherBlox Daily Observations layout. Learn more.

Left ArrowRight Arrow

39.92423, -83.80882

Hourly Observations for December 18, 2015

Temp ( °F °C ) Dew Point ( °F °C ) Humidity (%) Winds ( mph kmh ) Pressure ( in mb ) Visibility ( mi km ) Precip ( " mm )
12:56 am 00:56 Cloudy 30 -1.1 23 -5 75 75 W 8 13 29.99 1016 10 16.0934 0 0
1:56 am 01:56 Cloudy 30 -1.1 23 -5 75 75 W 7 11 29.99 1016 10 16.0934 0 0
2:56 am 02:56 Cloudy 30 -1.1 23 -5 75 75 W 6 9 30 1016 10 16.0934 0 0
3:56 am 03:56 Cloudy 30 -1.1 22 -5.5 72 72 W 8 13 30 1016 10 16.0934 0 0
4:56 am 04:56 Cloudy 30 -1.1 22 -5.5 72 72 W 7 11 29.99 1016 10 16.0934 0 0
5:56 am 05:56 Cloudy 29 -1.6 22 -5.5 75 75 W 10 17 30 1016 10 16.0934 0 0
6:56 am 06:56 Cloudy 29 -1.6 21 -6.1 72 72 W 12 19 30.01 1016 10 16.0934 0 0
7:56 am 07:56 Cloudy 29 -1.6 21 -6.1 72 72 W 9 15 30.02 1017 10 16.0934 0 0
8:56 am 08:56 Cloudy 30 -1.1 21 -6.1 69 69 W 8 13 30.03 1017 10 16.0934 0 0
9:24 am 09:24 Cloudy 30 -1 19 -7 64 64 W 12 19 30.06 1018 10 16.0934 0 0
9:56 am 09:56 Cloudy 31 -0.5 21 -6.1 66 66 WSW 15 24 30.04 1017 10 16.0934 0 0
10:56 am 10:56 Mostly Cloudy 33 0.5 21 -6.1 62 62 WSW 16 26 30.04 1017 10 16.0934 0 0
11:56 am 11:56 Mostly Cloudy 35 1.6 22 -5.5 60 60 WSW 16 26 30.02 1017 10 16.0934 0 0
12:56 pm 12:56 Mostly Cloudy 34 1.1 22 -5.5 62 62 WSW 17 28 30 1016 10 16.0934 0 0
1:56 pm 13:56 Cloudy 35 1.6 22 -5.5 60 60 WSW 22 35 30 1016 10 16.0934 0 0
2:56 pm 14:56 Mostly Cloudy with Light Wintry Mix 33 0.5 22 -5.5 64 64 W 20 31 30.01 1016 10 16.0934 0 0.0254
3:31 pm 15:31 Mostly Cloudy with Light Snow 30 -1 23 -5 75 75 W 17 28 30.06 1018 3 4.82802 0 0.0254
3:56 pm 15:56 Mostly Cloudy with Light Snow 31 -0.5 21 -6.1 66 66 WSW 21 33 30.04 1017 10 16.0934 0 0.0254
4:56 pm 16:56 Cloudy 30 -1.1 15 -9.4 54 54 WNW 18 30 30.09 1019 10 16.0934 0 0.0254
5:56 pm 17:56 Partly Cloudy 28 -2.2 15 -9.4 58 58 W 18 30 30.11 1020 10 16.0934 0 0
6:56 pm 18:56 Clear 27 -2.7 16 -8.8 63 63 W 10 17 30.14 1021 10 16.0934 0 0
7:56 pm 19:56 Mostly Clear 25 -3.8 18 -7.7 75 75 WSW 8 13 30.16 1021 10 16.0934 0 0
8:56 pm 20:56 Mostly Cloudy 27 -2.7 18 -7.7 69 69 SW 10 17 30.17 1022 10 16.0934 0 0
9:56 pm 21:56 Cloudy 28 -2.2 17 -8.3 63 63 SW 15 24 30.17 1022 10 16.0934 0 0
10:56 pm 22:56 Mostly Clear 28 -2.2 16 -8.8 61 61 SW 14 22 30.16 1021 10 16.0934 0 0
11:56 pm 23:56 Mostly Cloudy 29 -1.6 17 -8.3 61 61 SW 16 26 30.16 1021 10 16.0934 0 0

Powered by AerisWeather